Simultaneous Nadir Overpasses (SNOs) Predictions

Prediction of SNOs between AQUA and METOP-C Satellite Orbit:

Table of predicted SNOs for the next 14.0 days since TLE Epoch: 9/25/2020
Index Date (AQUA) Time (AQUA) Lat,Lon (AQUA) SZA (AQUA ) Date (METOP-C) Time (METOP-C) Lat,Lon (METOP-C) SZA (METOP-C ) Distance(km) Time Diff (sec)
1 09/27/2020 07:35:02 73.75, 60.71 75.54 09/27/2020 07:33:58 73.73, 60.70 75.52 2.42 64
2 09/27/2020 08:24:29 -73.80,-131.76 104.40 09/27/2020 08:24:39 -73.80,-131.80 104.40 1.25 10
3 09/27/2020 09:14:02 74.11, 35.18 75.94 09/27/2020 09:15:12 74.10, 36.26 75.91 32.89 70
4 09/30/2020 03:09:15 73.72, 127.20 76.60 09/30/2020 03:08:17 73.75, 127.17 76.64 3.32 58
5 09/30/2020 03:58:43 -73.82, -65.37 103.29 09/30/2020 03:58:58 -73.83, -65.32 103.28 2.01 15
6 09/30/2020 04:48:19 74.29, 101.20 77.22 09/30/2020 04:49:27 74.32, 103.23 77.22 61.41 68
7 10/02/2020 22:43:30 73.76,-166.44 77.72 10/02/2020 22:42:37 73.78,-166.36 77.75 3.37 53
8 10/02/2020 23:32:57 -73.80, 1.12 102.23 10/02/2020 23:33:19 -73.81, 1.05 102.21 2.62 22
9 10/03/2020 00:22:38 74.53, 167.06 78.56 10/03/2020 00:23:43 74.54, 170.22 78.53 93.64 65
10 10/05/2020 18:17:44 73.74, -99.97 78.79 10/05/2020 18:16:58 73.75,-100.00 78.81 1.32 46
11 10/05/2020 19:07:12 -73.83, 67.48 101.11 10/05/2020 19:07:39 -73.84, 67.53 101.10 1.86 27
12 10/08/2020 13:51:58 73.79, -33.63 79.91 10/08/2020 13:51:17 73.78, -33.53 79.90 3.42 41
13 10/08/2020 14:41:25 -73.82, 133.94 100.05 10/08/2020 14:41:59 -73.82, 133.89 100.05 1.63 34
